FW5801 Weather Reports


Display with metric or nautical units.
time (UTC)temp
F
wind
direction
speed
MPH
gust
MPH
rain 1hr
in
rain 24hr
in
rain mn
in
humidity
%
barometer
mb
20260508225057 62 0 0.0 2.0 0.00 0.00 0.00 61 1009.9
20260508224558 62 0 0.0 1.0 0.00 0.00 0.00 61 1009.9
20260508224057 62 0 0.0 3.0 0.00 0.00 0.00 61 1009.9
20260508223557 63 0 0.0 4.0 0.00 0.00 0.00 61 1009.8
20260508223057 63 0 0.0 4.0 0.00 0.00 0.00 61 1009.8
20260508222559 63 0 1.0 6.0 0.00 0.00 0.00 60 1009.9
20260508222058 63 0 0.0 6.0 0.00 0.00 0.00 60 1009.8
20260508221559 63 257 1.0 6.0 0.00 0.00 0.00 60 1009.9
20260508221057 63 265 2.0 5.0 0.00 0.00 0.00 60 1009.8
20260508220602 63 269 1.0 5.0 0.00 0.00 0.00 59 1009.7
20260508220057 63 265 1.0 7.0 0.00 0.00 0.00 59 1009.7
20260508215556 63 269 1.0 7.0 0.00 0.00 0.00 59 1009.5
20260508215058 63 250 1.0 8.0 0.00 0.00 0.00 59 1009.6
20260508214558 63 262 1.0 8.0 0.00 0.00 0.00 58 1009.5
20260508214058 64 259 2.0 8.0 0.00 0.00 0.00 57 1009.7
20260508213555 64 251 3.0 8.0 0.00 0.00 0.00 57 1009.8
20260508213059 64 267 3.0 8.0 0.00 0.00 0.00 56 1009.7
20260508212555 64 271 4.0 8.0 0.00 0.00 0.00 56 1009.8
20260508212057 64 263 3.0 10.0 0.00 0.00 0.00 56 1009.8
20260508211602 64 277 4.0 14.0 0.00 0.00 0.00 55 1009.8
20260508211059 64 227 4.0 15.0 0.00 0.00 0.00 55 1009.8
20260508210556 64 227 6.0 15.0 0.00 0.00 0.00 53 1009.8
20260508210059 64 239 6.0 15.0 0.00 0.00 0.00 54 1009.9
20260508205555 64 255 4.0 11.0 0.00 0.00 0.00 54 1009.8
20260508205059 65 235 4.0 14.0 0.00 0.00 0.00 53 1010.0
20260508204556 64 263 3.0 15.0 0.00 0.00 0.00 53 1010.0
20260508204100 65 250 6.0 15.0 0.00 0.00 0.00 53 1009.9
20260508203555 65 261 8.0 18.0 0.00 0.00 0.00 53 1010.0
20260508203055 65 246 8.0 18.0 0.00 0.00 0.00 51 1010.0
20260508202601 65 271 7.0 17.0 0.00 0.00 0.00 51 1010.0
20260508202058 65 263 8.0 19.0 0.00 0.00 0.00 50 1010.1
20260508201557 66 250 9.0 19.0 0.00 0.00 0.00 50 1010.2
20260508201058 66 234 10.0 19.0 0.00 0.00 0.00 49 1010.3
20260508200556 66 236 5.0 15.0 0.00 0.00 0.00 51 1010.3
20260508200058 66 226 5.0 15.0 0.00 0.00 0.00 52 1010.2
20260508195555 66 284 6.0 15.0 0.00 0.00 0.00 51 1010.4
20260508195056 66 281 5.0 16.0 0.00 0.00 0.00 53 1010.4
20260508194606 65 259 4.0 16.0 0.00 0.00 0.00 54 1010.6
20260508194058 65 246 8.0 17.0 0.00 0.00 0.00 52 1010.7
20260508193558 65 218 9.0 21.0 0.00 0.00 0.00 52 1010.8
20260508193119 65 238 8.0 21.0 0.00 0.00 0.00 52 1011.0
20260508192555 65 275 7.0 17.0 0.00 0.00 0.00 53 1011.0
20260508192104 65 240 8.0 19.0 0.00 0.00 0.00 51 1011.0
20260508191608 66 286 8.0 19.0 0.00 0.00 0.00 51 1011.3
20260508191100 66 296 9.0 19.0 0.00 0.00 0.00 53 1011.2
20260508190600 65 215 9.0 17.0 0.00 0.00 0.00 54 1011.2
20260508190113 65 272 8.0 17.0 0.00 0.00 0.00 55 1011.1
20260508185600 65 225 8.0 16.0 0.00 0.00 0.00 55 1011.2
20260508185100 65 261 8.0 17.0 0.00 0.00 0.00 55 1011.4
20260508184613 65 267 9.0 18.0 0.00 0.00 0.00 55 1011.4
20260508184100 65 228 9.0 19.0 0.00 0.00 0.00 55 1011.4
20260508183559 65 234 8.0 19.0 0.00 0.00 0.00 55 1011.5
20260508183102 65 250 8.0 19.0 0.00 0.00 0.00 54 1011.3
20260508182601 66 252 9.0 19.0 0.00 0.00 0.00 53 1011.3
20260508182100 66 227 6.0 16.0 0.00 0.00 0.00 56 1011.4
20260508181606 66 260 6.0 19.0 0.00 0.00 0.00 55 1011.4
20260508181100 65 240 8.0 19.0 0.00 0.00 0.00 54 1011.7
20260508180603 66 215 9.0 15.0 0.00 0.00 0.00 53 1011.7
20260508180106 66 232 6.0 24.0 0.00 0.00 0.00 57 1011.9
20260508175600 65 273 6.0 24.0 0.00 0.00 0.00 58 1011.9
20260508175100 65 229 9.0 24.0 0.00 0.00 0.00 54 1012.1
20260508174603 65 261 4.0 19.0 0.00 0.00 0.00 60 1012.2
20260508174100 64 245 5.0 19.0 0.00 0.00 0.00 58 1012.2
20260508173600 64 248 9.0 16.0 0.00 0.00 0.00 56 1012.3
20260508173101 64 254 6.0 16.0 0.00 0.00 0.00 61 1012.5
20260508172601 63 273 8.0 16.0 0.00 0.00 0.00 58 1012.7
20260508172100 63 249 5.0 13.0 0.00 0.00 0.00 59 1012.7
20260508171559 62 243 8.0 13.0 0.00 0.00 0.00 59 1012.8
20260508171059 62 212 5.0 18.0 0.00 0.00 0.00 60 1012.9
20260508170600 62 246 6.0 18.0 0.00 0.00 0.00 59 1013.0
20260508165559 62 254 7.0 14.0 0.00 0.00 0.00 58 1013.3
20260508165102 62 252 6.0 14.0 0.00 0.00 0.00 58 1013.2
20260508164559 62 275 6.0 19.0 0.00 0.00 0.00 58 1013.2
20260508164100 62 266 7.0 19.0 0.00 0.00 0.00 58 1013.2
20260508163600 62 261 6.0 16.0 0.00 0.00 0.00 58 1013.4
20260508163109 63 250 8.0 17.0 0.00 0.00 0.00 57 1013.4
20260508162600 63 239 8.0 17.0 0.00 0.00 0.00 58 1013.5
20260508162100 63 253 10.0 17.0 0.00 0.00 0.00 57 1013.5
20260508161601 63 252 7.0 17.0 0.00 0.00 0.00 58 1013.5
20260508161100 63 283 10.0 17.0 0.00 0.00 0.00 56 1013.5
20260508160625 64 215 8.0 17.0 0.00 0.00 0.00 57 1013.5
20260508160104 64 257 9.0 18.0 0.00 0.00 0.00 58 1013.5
20260508155559 63 224 9.0 18.0 0.00 0.00 0.00 58 1013.6
20260508155100 62 281 8.0 20.0 0.00 0.00 0.00 60 1013.5
20260508154611 62 222 7.0 20.0 0.00 0.00 0.00 59 1013.6
20260508154059 62 272 10.0 20.0 0.00 0.00 0.00 56 1013.6
20260508153600 62 263 7.0 17.0 0.00 0.00 0.00 58 1013.6
20260508153110 62 296 8.0 20.0 0.00 0.00 0.00 59 1013.6
20260508152606 62 265 8.0 20.0 0.00 0.00 0.00 58 1013.7
20260508152100 62 219 9.0 20.0 0.00 0.00 0.00 57 1013.6
20260508151601 61 267 7.0 16.0 0.00 0.00 0.00 59 1013.8
20260508151059 61 247 8.0 16.0 0.00 0.00 0.00 59 1013.8
20260508150559 61 276 7.0 13.0 0.00 0.00 0.00 58 1013.9
20260508150101 61 258 4.0 13.0 0.00 0.00 0.00 61 1014.0
20260508145602 61 265 5.0 14.0 0.00 0.00 0.00 60 1014.0
20260508145100 60 269 5.0 14.0 0.00 0.00 0.00 60 1014.0
20260508144600 60 254 8.0 14.0 0.00 0.00 0.00 60 1014.2
20260508144100 59 257 5.0 11.0 0.00 0.00 0.00 60 1014.2
20260508143600 59 288 4.0 11.0 0.00 0.00 0.00 61 1014.3
20260508143118 58 225 5.0 11.0 0.00 0.00 0.00 61 1014.4
20260508142559 57 261 5.0 11.0 0.00 0.00 0.00 62 1014.3
20260508142100 56 271 4.0 12.0 0.00 0.00 0.00 62 1014.4
20260508141606 56 284 5.0 12.0 0.00 0.00 0.00 62 1014.4
20260508141059 56 263 4.0 12.0 0.00 0.00 0.00 62 1014.5
20260508140559 56 258 5.0 12.0 0.00 0.00 0.00 62 1014.3
20260508140119 55 213 3.0 12.0 0.00 0.00 0.00 63 1014.2
20260508135600 55 265 3.0 15.0 0.00 0.00 0.00 63 1014.5
20260508135059 55 216 5.0 16.0 0.00 0.00 0.00 62 1014.4
20260508134559 55 262 8.0 16.0 0.00 0.00 0.00 62 1014.3
20260508134100 54 271 4.0 15.0 0.00 0.00 0.00 63 1014.3
20260508133600 54 237 7.0 15.0 0.00 0.00 0.00 62 1014.3
20260508133105 54 288 4.0 12.0 0.00 0.00 0.00 63 1014.2
20260508132559 53 294 5.0 12.0 0.00 0.00 0.00 64 1014.3
20260508132100 53 267 5.0 13.0 0.00 0.00 0.00 64 1014.3
20260508131603 53 282 6.0 13.0 0.00 0.00 0.00 64 1014.3
20260508131100 52 258 4.0 16.0 0.00 0.00 0.00 64 1014.3
20260508130559 52 238 8.0 16.0 0.00 0.00 0.00 63 1014.3
20260508130059 52 247 8.0 15.0 0.00 0.00 0.00 64 1014.2
20260508125603 52 245 4.0 11.0 0.00 0.00 0.00 65 1014.4
20260508125100 51 250 4.0 11.0 0.00 0.00 0.00 67 1014.4
20260508124558 51 240 3.0 11.0 0.00 0.00 0.00 67 1014.3
20260508124059 50 211 5.0 14.0 0.00 0.00 0.00 68 1014.3
20260508123559 50 207 5.0 14.0 0.00 0.00 0.00 68 1014.2
20260508123058 49 225 4.0 9.0 0.00 0.00 0.00 69 1014.2
20260508122604 49 212 3.0 9.0 0.00 0.00 0.00 71 1014.2
20260508122100 48 253 3.0 9.0 0.00 0.00 0.00 69 1014.2
20260508121602 48 225 2.0 11.0 0.00 0.00 0.00 69 1014.3
20260508121059 48 215 5.0 11.0 0.00 0.00 0.00 69 1014.3
20260508120559 48 235 3.0 9.0 0.00 0.00 0.00 69 1014.1
20260508120114 48 265 3.0 10.0 0.00 0.00 0.00 69 1014.2
20260508115603 48 196 4.0 12.0 0.00 0.00 0.00 70 1014.1
20260508115059 47 115 6.0 12.0 0.00 0.00 0.00 69 1014.2
20260508114605 47 121 4.0 11.0 0.00 0.00 0.00 70 1014.1
20260508114059 46 125 2.0 8.0 0.00 0.00 0.00 71 1014.1
20260508113559 46 117 2.0 8.0 0.00 0.00 0.00 71 1014.2
20260508113103 46 114 3.0 8.0 0.00 0.00 0.00 71 1014.2
20260508112559 46 113 3.0 8.0 0.00 0.00 0.00 72 1014.1
20260508112059 45 136 3.0 8.0 0.00 0.00 0.00 71 1014.0
20260508111556 45 137 2.0 11.0 0.00 0.00 0.00 72 1014.1
20260508111056 45 0 4.0 11.0 0.00 0.00 0.00 71 1014.0
20260508110559 45 130 3.0 8.0 0.00 0.00 0.00 71 1013.9
20260508110106 45 116 3.0 8.0 0.00 0.00 0.00 71 1013.9
20260508105601 45 126 3.0 11.0 0.00 0.00 0.00 71 1013.9
20260508105059 45 138 3.0 11.0 0.00 0.00 0.00 71 1013.9
20260508104600 45 113 4.0 9.0 0.00 0.00 0.00 71 1013.8
20260508104100 45 129 3.0 10.0 0.00 0.00 0.00 70 1013.8
20260508103559 45 126 5.0 10.0 0.00 0.00 0.00 70 1013.7
20260508103100 45 124 4.0 9.0 0.00 0.00 0.00 70 1013.7
20260508102559 45 120 3.0 9.0 0.00 0.00 0.00 70 1013.7
20260508102102 45 127 4.0 10.0 0.00 0.00 0.00 70 1013.7
20260508101604 45 121 4.0 10.0 0.00 0.00 0.00 70 1013.7
20260508101100 45 118 4.0 10.0 0.00 0.00 0.00 70 1013.6
20260508100602 45 109 4.0 10.0 0.00 0.00 0.00 70 1013.6
20260508100129 45 126 3.0 8.0 0.00 0.00 0.00 70 1013.6
20260508095601 45 125 3.0 8.0 0.00 0.00 0.00 70 1013.6
20260508095100 45 113 4.0 8.0 0.00 0.00 0.00 70 1013.5
20260508094600 45 111 4.0 9.0 0.00 0.00 0.00 70 1013.5
20260508094100 45 109 4.0 9.0 0.00 0.00 0.00 70 1013.4
20260508093600 45 102 4.0 8.0 0.00 0.00 0.00 70 1013.6
20260508093058 45 117 3.0 9.0 0.00 0.00 0.00 70 1013.6
20260508092559 45 111 3.0 9.0 0.00 0.00 0.00 69 1013.6
20260508092059 45 112 3.0 9.0 0.00 0.00 0.00 69 1013.7
20260508091613 45 111 3.0 9.0 0.00 0.00 0.00 68 1013.7
20260508091101 45 109 3.0 9.0 0.00 0.00 0.00 68 1013.6
20260508090600 45 103 2.0 9.0 0.00 0.00 0.00 68 1013.7
20260508090059 45 107 3.0 8.0 0.00 0.00 0.00 68 1013.8
20260508085600 45 121 2.0 9.0 0.00 0.00 0.00 68 1013.8
20260508085059 46 113 3.0 9.0 0.00 0.00 0.00 68 1013.7
20260508084557 46 116 2.0 8.0 0.00 0.00 0.00 68 1013.7
20260508084100 46 126 4.0 8.0 0.00 0.00 0.00 68 1013.8
20260508083600 46 121 3.0 8.0 0.00 0.00 0.00 68 1013.7
20260508083059 46 117 2.0 7.0 0.00 0.00 0.00 67 1013.6
20260508082556 46 128 2.0 7.0 0.00 0.00 0.00 67 1013.6
20260508082056 46 130 3.0 7.0 0.00 0.00 0.00 68 1013.7
20260508081613 46 0 3.0 8.0 0.00 0.00 0.00 67 1013.7
20260508081055 46 119 2.0 8.0 0.00 0.00 0.00 67 1013.7
20260508080601 46 123 3.0 9.0 0.00 0.00 0.00 66 1013.7
20260508080101 47 128 2.0 9.0 0.00 0.00 0.00 66 1013.7
20260508075600 47 0 4.0 9.0 0.00 0.00 0.00 66 1013.7
20260508075101 47 125 2.0 11.0 0.00 0.00 0.00 65 1013.7
20260508074608 47 148 4.0 11.0 0.00 0.00 0.00 65 1013.7
20260508074100 47 131 2.0 10.0 0.00 0.00 0.00 65 1013.7
20260508073559 48 117 4.0 10.0 0.00 0.00 0.00 64 1013.6
20260508073105 48 117 3.0 14.0 0.00 0.00 0.00 64 1013.7
20260508072556 48 136 4.0 14.0 0.00 0.00 0.00 63 1013.8
20260508072103 48 124 5.0 14.0 0.00 0.00 0.00 63 1013.7
20260508071558 48 132 4.0 11.0 0.00 0.00 0.00 63 1013.7
20260508071101 48 131 3.0 11.0 0.00 0.00 0.00 63 1013.9
20260508070600 49 126 3.0 11.0 0.00 0.00 0.00 63 1013.9
20260508070100 49 128 2.0 16.0 0.00 0.00 0.00 63 1013.9
20260508065558 49 138 7.0 16.0 0.00 0.00 0.00 63 1013.9
20260508065059 48 112 3.0 12.0 0.00 0.00 0.00 66 1013.9
20260508064600 48 0 4.0 12.0 0.00 0.00 0.00 68 1014.3
20260508064059 49 166 6.0 10.0 0.00 0.00 0.00 68 1014.5
20260508063559 49 173 1.0 11.0 0.00 0.00 0.00 65 1014.4
20260508063100 49 134 3.0 11.0 0.00 0.00 0.00 64 1013.9
20260508062559 49 132 6.0 11.0 0.00 0.00 0.00 63 1013.7
20260508062059 49 117 5.0 12.0 0.00 0.00 0.00 63 1013.8
20260508061604 49 109 5.0 12.0 0.00 0.00 0.00 63 1013.8
20260508061056 49 142 6.0 12.0 0.00 0.00 0.00 63 1013.7
20260508060556 50 127 4.0 14.0 0.00 0.00 0.00 63 1013.8
20260508060121 50 123 7.0 14.0 0.00 0.00 0.00 63 1013.9
20260508055556 50 103 6.0 14.0 0.00 0.00 0.00 62 1013.9
20260508055059 50 112 4.0 13.0 0.00 0.00 0.00 63 1013.9
20260508054642 50 106 5.0 12.0 0.00 0.00 0.00 62 1013.9
20260508054056 50 124 6.0 12.0 0.00 0.00 0.00 62 1013.9
20260508053558 50 107 5.0 10.0 0.00 0.00 0.00 62 1013.9
20260508053059 50 136 5.0 10.0 0.00 0.00 0.00 63 1013.9
20260508052556 49 116 5.0 12.0 0.00 0.00 0.00 63 1014.0
20260508052059 49 111 4.0 12.0 0.00 0.00 0.00 63 1013.9
20260508051600 49 123 3.0 10.0 0.00 0.00 0.00 63 1013.9
20260508051059 49 126 4.0 10.0 0.00 0.00 0.00 64 1014.0
20260508050600 49 105 4.0 9.0 0.00 0.00 0.00 64 1013.9
20260508050057 49 111 4.0 8.0 0.00 0.00 0.00 64 1014.1
20260508045558 49 121 3.0 8.0 0.00 0.00 0.00 64 1014.0
20260508045056 49 124 3.0 8.0 0.00 0.00 0.00 64 1014.1
20260508044557 49 119 3.0 8.0 0.00 0.00 0.00 64 1014.1
20260508044059 49 86 1.0 6.0 0.00 0.00 0.00 64 1014.3
20260508043558 48 0 1.0 6.0 0.00 0.00 0.00 64 1014.3
20260508043101 48 0 0.0 2.0 0.00 0.00 0.00 64 1014.2
20260508042559 48 0 0.0 2.0 0.00 0.00 0.00 64 1014.2
20260508042101 49 0 0.0 1.0 0.00 0.00 0.00 64 1014.1
20260508041556 49 0 0.0 0.0 0.00 0.00 0.00 64 1014.3
20260508041059 49 0 0.0 3.0 0.00 0.00 0.00 63 1014.4
20260508040559 49 0 0.0 4.0 0.00 0.00 0.00 63 1014.3
20260508040100 49 0 0.0 4.0 0.00 0.00 0.00 63 1014.4
20260508035559 49 0 1.0 7.0 0.00 0.00 0.00 63 1014.2
20260508035100 49 103 1.0 7.0 0.00 0.00 0.00 63 1014.0
20260508034558 49 103 2.0 6.0 0.00 0.00 0.00 63 1014.1
20260508034100 48 112 2.0 4.0 0.00 0.00 0.00 63 1014.2
20260508033559 48 0 0.0 4.0 0.00 0.00 0.00 63 1014.1
20260508033059 48 104 0.0 3.0 0.00 0.00 0.00 65 1014.1
20260508032559 48 0 0.0 4.0 0.00 0.00 0.00 65 1014.1
20260508032101 48 0 0.0 4.0 0.00 0.00 0.00 65 1014.0
20260508031602 48 0 0.0 4.0 0.00 0.00 0.00 64 1014.0
20260508031101 48 0 0.0 2.0 0.00 0.00 0.00 64 1013.9
20260508030602 48 0 0.0 2.0 0.00 0.00 0.00 64 1013.9
20260508030109 48 0 0.0 3.0 0.00 0.00 0.00 63 1014.0
20260508025601 48 0 0.0 4.0 0.00 0.00 0.00 63 1013.9
20260508025059 48 0 0.0 4.0 0.00 0.00 0.00 63 1014.0
20260508024617 48 109 0.0 3.0 0.00 0.00 0.00 63 1014.1
20260508024101 48 110 0.0 3.0 0.00 0.00 0.00 63 1014.0
20260508023602 49 0 0.0 2.0 0.00 0.00 0.00 62 1014.0
20260508023059 49 0 0.0 3.0 0.00 0.00 0.00 62 1014.1
20260508022602 49 0 0.0 3.0 0.00 0.00 0.00 62 1013.9
20260508022101 49 104 0.0 0.0 0.00 0.00 0.00 62 1013.8
20260508021602 49 0 0.0 0.0 0.00 0.00 0.00 62 1014.0
20260508021059 49 0 0.0 0.0 0.00 0.00 0.00 62 1014.1
20260508020602 49 0 0.0 0.0 0.00 0.00 0.00 62 1014.1
20260508020108 49 0 0.0 0.0 0.00 0.00 0.00 62 1014.0
20260508015559 49 0 0.0 0.0 0.00 0.00 0.00 62 1013.9
20260508015059 49 0 0.0 2.0 0.00 0.00 0.00 62 1014.0
20260508014625 49 0 0.0 2.0 0.00 0.00 0.00 62 1013.9
20260508014058 49 0 0.0 2.0 0.00 0.00 0.00 62 1014.1
20260508013559 49 0 0.0 2.0 0.00 0.00 0.00 62 1014.0
20260508013101 49 0 0.0 2.0 0.00 0.00 0.00 62 1014.0
20260508012601 49 0 0.0 1.0 0.00 0.00 0.00 61 1014.0
20260508012058 49 0 0.0 0.0 0.00 0.00 0.00 61 1013.9
20260508011615 50 0 0.0 0.0 0.00 0.00 0.00 60 1014.0
20260508011100 50 0 0.0 1.0 0.00 0.00 0.00 60 1013.9
20260508010559 50 0 0.0 1.0 0.00 0.00 0.00 60 1013.9
20260508005601 51 0 0.0 2.0 0.00 0.00 0.00 58 1013.9
20260508005101 51 0 0.0 2.0 0.00 0.00 0.00 58 1013.9
20260508004600 51 0 0.0 2.0 0.00 0.00 0.00 58 1013.8
20260508004101 52 0 0.0 2.0 0.00 0.00 0.00 58 1013.7
20260508003605 52 0 0.0 2.0 0.00 0.00 0.00 58 1013.7
20260508003059 53 0 0.0 3.0 0.00 0.00 0.00 57 1013.8
20260508002559 53 0 0.0 3.0 0.00 0.00 0.00 57 1013.6
20260508002056 53 0 0.0 3.0 0.00 0.00 0.00 56 1013.6
20260508001602 54 0 0.0 6.0 0.00 0.00 0.00 55 1013.8
20260508001059 54 292 0.0 6.0 0.00 0.00 0.00 54 1013.6
20260508000555 54 282 0.0 6.0 0.00 0.00 0.00 54 1013.5
20260508000057 55 0 1.0 6.0 0.00 0.00 0.00 55 1013.6
20260507235559 55 287 1.0 8.0 0.00 0.00 0.00 54 1013.5
20260507235056 55 301 3.0 8.0 0.00 0.00 0.00 52 1013.6
20260507234600 55 279 2.0 7.0 0.00 0.00 0.00 52 1013.6
20260507234101 55 300 2.0 7.0 0.00 0.00 0.00 53 1013.6
20260507233601 56 273 1.0 6.0 0.00 0.00 0.00 52 1013.5
20260507233059 56 304 2.0 6.0 0.00 0.00 0.00 53 1013.6
20260507232556 56 323 2.0 8.0 0.00 0.00 0.00 52 1013.5
20260507232058 56 334 1.0 8.0 0.00 0.00 0.00 51 1013.5
20260507231558 56 327 3.0 8.0 0.00 0.00 0.00 51 1013.5
20260507231103 57 313 3.0 10.0 0.00 0.00 0.00 51 1013.5
20260507230557 57 321 3.0 11.0 0.00 0.00 0.00 51 1013.4
20260507230059 57 320 4.0 11.0 0.00 0.00 0.00 51 1013.5
20260507225558 57 319 5.0 10.0 0.00 0.00 0.00 50 1013.5